Regional Weather Roundup
Issued by NWS Charleston, WV

Home | Current Version | Previous Version | Graphics & Text | Print | Product List | Glossary On
Versions: 1 2 3 4 5 6 7 8 9 10 11 12 13 14 15 16 17 18 19 20 21 22 23 24 25 26 27
000
ASUS41 KRLX 161210
RWRRLX
West Virginia Regional Weather Roundup
National Weather Service Charleston WV
800 AM EDT MON OCT 16 2017

Note: "fair" indicates few or no clouds below 12,000 feet with no
significant weather and/or obstructions to visibility.

WVZ003-161300-
Northern Panhandle of West Virginia

CITY           SKY/WX    TMP DP  RH WIND       PRES   REMARKS
WHEELING       LGT RAIN  48  43  82 NW5       30.17R
$$

WVZ009-161300-
Northwest West Virginia

CITY           SKY/WX    TMP DP  RH WIND       PRES   REMARKS
PARKERSBURG    CLOUDY    51  41  68 NW5       30.21R
$$

WVZ006-161300-
Western West Virginia

CITY           SKY/WX    TMP DP  RH WIND       PRES   REMARKS
HUNTINGTON     PTCLDY    48  42  80 NW6       30.22R
$$

WVZ015-161300-
West Central West Virginia

CITY           SKY/WX    TMP DP  RH WIND       PRES   REMARKS
CHARLESTON     CLOUDY    51  44  77 W7        30.20R
$$

WVZ022-031-161300-
North Central West Virginia

CITY           SKY/WX    TMP DP  RH WIND       PRES   REMARKS
CLARKSBURG     CLOUDY    52  42  69 NW9       30.16R
MORGANTOWN     CLOUDY    51  42  71 NW7       30.17R
$$

WVZ025-035-042-045-161300-
Southern West Virginia

CITY           SKY/WX    TMP DP  RH WIND       PRES   REMARKS
BECKLEY        CLOUDY    46  43  89 NW8       30.17R
LOGAN          CLOUDY    50  46  87 CALM      30.20R
BLUEFIELD      CLOUDY    44  41  89 NW6       30.17R
LEWISBURG      CLOUDY    50  41  71 NW6       30.14S
$$

WVZ047-161300-
Northern Mountains of West Virginia

CITY           SKY/WX    TMP DP  RH WIND       PRES   REMARKS
ELKINS         CLOUDY    49  42  77 NW8       30.15R
$$

WVZ052-161300-
Eastern Panhandle of West Virginia

CITY           SKY/WX    TMP DP  RH WIND       PRES   REMARKS
MARTINSBURG    CLOUDY    57  45  64 N10G17    30.05R
PETERSBURG     CLOUDY    56  42  59 NW6       30.11R
$$




USA.gov is the U.S. government's official web portal to all federal, state and local government web resources and services.